Regional Weather Roundup
Issued by NWS Northern Indiana

Home | Current Version | Previous Version | Text Only | Print | Product List | Glossary Off
Versions: 1 2 3 4 5 6 7 8 9 10 11 12 13 14 15 16 17 18 19 20 21 22 23 24 25 26 27 28 29 30 31 32 33 34 35 36 37 38 39 40 41 42 43 44 45 46 47 48 49 50

000
ASUS43 KIWX 211300
RWRIWX

KIWX WEATHER ROUNDUP
NATIONAL WEATHER SERVICE NORTHERN INDIANA
900 AM EDT THU AUG 21 2014

NOTE: "FAIR" INDICATES FEW OR NO CLOUDS BELOW 12,000 FEET WITH NO
SIGNIFICANT WEATHER AND/OR OBSTRUCTIONS TO VISIBILITY.

* THESE STATIONS ARE NOT UNDER NWS QUALITY CONTROL. THEY ALSO MAY NOT
  REPORT WEATHER SUCH AS PRECIPITATION OR FOG.

INZ001>027-211400-
NORTHERN INDIANA

CITY           SKY/WX    TMP DP  RH WIND       PRES   REMARKS
VALPARAISO     LGT RAIN  69  68  96 SW10      30.00R
KNOX*          CLOUDY    69  67  92 S3        29.98S
SOUTH BEND     CLOUDY    71  66  84 S3        29.98R
ELKHART*       CLOUDY    72  66  83 SW5       29.99R
GOSHEN         CLOUDY    73  67  81 W3        29.99R
MONTICELLO*    CLOUDY    71  70  96 S6        29.98R
WARSAW*        CLOUDY    70  68  94 CALM      30.00R
ANGOLA*        SUNNY     75  68  78 W3        29.98R
FORT WAYNE     CLOUDY    71  68  90 S7        30.01R
PERU/GRISSOM   TSTM      70  70 100 S9        30.00R

$$
INZ028>050-211400-
CENTRAL INDIANA

CITY           SKY/WX    TMP DP  RH WIND       PRES   REMARKS
LAFAYETTE      LGT RAIN  70  69  97 S5        29.99R
KOKOMO*        CLOUDY    70  66  88 S6        30.02S
MUNCIE*        TSTM      71  68  90 SW9       30.05R FOG
INDIANAPOLIS   LGT RAIN  71  68  90 S9        30.00R

$$
MIZ043>046-050>051-056>058-064>065-071>073-077>080-211400-
SOUTHWEST LOWER MICHIGAN

CITY           SKY/WX    TMP DP  RH WIND       PRES   REMARKS
BATTLE CREEK   MOSUNNY   72  68  87 CALM      29.98S
BENTON HARBOR  CLOUDY    70  67  90 S5        29.97R
COLDWATER*     SUNNY     74  69  85 NW3       29.98R
HILLSDALE*     SUNNY     73  71  93 W5        29.99S
HOLLAND        CLOUDY    72  68  87 CALM      29.96S FOG
GRAND RAPIDS   MOSUNNY   69  66  90 E6        29.98R
KALAMAZOO      MOSUNNY   74  67  78 W5        29.97S
STURGIS*       MOSUNNY   72  68  88 SW6       29.99R
THREE RIVERS*  FAIR      74  68  81 CALM      29.98R

$$
OHZ001>008-015>018-024>025-211400-
NORTHWEST OHIO

CITY           SKY/WX    TMP DP  RH WIND       PRES   REMARKS
DEFIANCE       SUNNY     73  67  81 SW3       29.99S
FINDLAY        MOSUNNY   74  68  81 S6        30.00S
TOLEDO EXPRESS SUNNY     72  68  87 SW6       29.98S
TOLEDO METCALF SUNNY     72  67  84 SW8       29.99R
LIMA           PTSUNNY   75  69  81 S9        30.02R

$$
&&



USA.gov is the U.S. government's official web portal to all federal, state and local government web resources and services.